Wind_Speed
46 46 45 45 46 46 47 48 47 47 46 45 44 42 41 39 39 38 38 38 38 37 36 35 34 35 35 36 36 37 38 38 38 38 37 36 33 30 27 26 24 21 20 19 18 18 19 20 21 22 23 23 22 23 24 26 27 27 28 27 27 28 29
45 45 44 45 45 46 47 47 46 46 45 43 42 41 39 38 38 37 37 37 37 36 36 35 34 34 34 35 35 35 36 36 37 37 36 35 33 30 28 27 25 23 22 21 20 21 21 21 22 24 25 24 24 25 26 27 28 28 28 28 28 28 28
47 47 47 48 48 48 47 47 46 45 43 41 40 39 38 37 36 36 35 35 35 36 36 36 36 35 35 34 34 34 34 35 35 36 35 34 33 31 29 29 26 24 24 23 23 23 23 23 24 26 26 26 27 28 29 30 31 30 30 30 30 29 29
47 48 48 49 48 47 46 45 43 42 40 39 40 39 38 37 36 35 34 34 35 36 37 37 36 35 34 33 33 32 32 32 33 34 34 34 34 33 31 30 28 26 25 25 26 26 26 26 26 27 28 29 31 32 33 33 33 32 32 32 31 30 30
45 45 46 45 45 44 43 42 40 40 39 39 39 39 38 36 35 35 35 35 36 36 36 36 35 34 33 32 32 31 30 30 31 33 34 35 35 34 33 32 30 28 27 27 27 28 29 29 29 30 31 33 35 36 36 36 36 35 34 33 32 31 30
48 48 47 47 46 45 44 43 43 42 42 42 41 41 40 39 39 39 39 38 37 37 36 35 35 34 33 33 31 30 29 28 29 32 34 36 36 36 35 34 32 31 29 28 28 30 32 32 32 33 34 36 38 39 39 38 38 37 36 35 34 33 32
54 53 52 51 51 50 49 48 47 47 47 47 47 46 45 44 44 43 43 42 40 39 37 36 35 34 33 32 31 29 28 28 29 32 34 37 37 37 36 35 34 33 32 30 30 32 34 35 36 36 37 39 40 41 41 41 40 39 38 38 36 35 34
56 55 54 54 53 53 52 52 51 50 50 50 49 49 48 46 45 44 43 42 40 39 37 36 35 33 32 31 30 29 28 28 29 32 35 37 38 38 37 37 36 35 34 34 34 34 36 37 38 38 40 41 42 43 44 43 42 41 40 39 38 37 36
56 55 54 54 53 53 53 53 52 51 50 49 49 48 47 46 44 42 41 39 38 37 36 35 34 33 32 31 30 29 28 28 30 32 35 37 38 38 39 39 39 38 38 38 38 38 39 39 40 41 42 43 43 44 46 46 45 44 43 41 40 39 38
55 54 54 53 53 53 53 52 51 50 48 47 46 45 44 43 41 40 39 38 36 35 35 34 34 33 32 32 31 30 30 30 31 33 35 37 39 40 41 41 41 42 42 42 42 42 41 41 41 43 44 45 45 46 47 47 47 47 46 44 42 41 40
52 51 51 50 51 51 50 49 47 45 43 42 42 41 41 41 40 39 38 37 35 34 34 34 34 34 33 33 32 32 32 32 33 35 37 39 41 42 43 44 45 46 46 46 45 44 44 43 44 44 46 47 47 47 48 48 48 48 47 46 45 44 43
48 47 47 46 47 47 47 47 45 43 41 40 40 40 40 40 39 38 37 35 34 33 33 33 34 34 34 34 34 34 35 36 37 38 40 41 43 45 46 47 48 48 48 47 46 45 45 45 45 46 47 48 49 49 48 48 48 47 47 47 46 46 45
45 45 45 45 46 47 47 47 46 44 42 41 41 40 39 38 37 36 35 34 33 33 33 34 34 35 35 35 36 37 38 39 40 41 42 44 45 46 47 48 48 48 47 46 45 44 45 45 46 46 47 48 49 49 49 48 48 47 47 47 47 47 46
45 46 46 46 45 45 45 46 45 44 42 41 39 38 36 36 36 36 36 36 35 35 35 35 35 36 37 37 38 39 40 41 42 43 43 44 45 46 46 46 45 44 43 43 42 42 43 44 45 46 47 47 48 49 49 49 49 49 49 49 48 47 47
44 43 41 38 35 33 34 36 37 37 37 37 37 37 36 37 37 37 36 36 36 36 36 37 37 38 39 41 42 43 44 45 46 46 46 46 45 45 44 43 42 41 41 41 41 42 43 44 46 48 49 49 50 50 50 51 51 51 51 51 49 48 47
40 37 35 32 29 27 27 29 31 32 33 34 35 36 36 35 35 36 36 37 38 39 40 41 42 43 44 46 46 47 48 50 50 50 49 48 46 45 43 42 41 41 41 41 42 43 44 46 47 49 50 51 51 51 51 52 52 52 51 50 49 47 45
38 36 33 32 32 32 31 31 33 36 38 39 40 39 39 40 40 40 42 44 45 45 45 46 46 47 48 49 50 51 52 52 52 52 50 49 47 45 43 42 42 41 41 41 42 43 45 48 49 50 50 50 50 51 51 51 51 51 50 49 47 46 44
39 38 34 33 35 37 38 37 38 41 43 45 46 47 47 47 46 47 48 49 50 50 50 50 50 51 52 53 53 53 53 53 53 52 51 50 49 47 46 44 43 42 41 41 43 46 50 51 52 51 49 48 48 48 49 49 49 48 47 46 46 45 44
40 40 38 36 37 39 40 40 40 41 42 45 49 51 51 50 49 50 51 52 53 53 52 53 53 54 54 53 53 53 53 53 52 51 51 50 50 49 47 45 44 43 43 43 47 52 55 54 53 51 49 48 47 47 46 46 46 46 45 45 45 46 47
42 43 44 43 43 43 43 43 42 41 42 45 48 49 50 50 51 52 53 54 54 54 54 54 54 54 54 53 54 53 53 52 51 50 50 50 50 49 47 46 46 46 46 48 54 59 60 58 55 52 50 49 48 47 46 45 45 45 45 47 48 49 50
47 48 50 50 50 50 50 49 46 44 44 45 47 48 50 52 52 53 54 54 54 55 55 54 54 54 54 54 53 53 52 51 51 51 50 50 50 49 49 48 48 48 51 56 62 65 64 61 57 53 51 50 49 48 47 47 47 48 50 52 53 53 52
52 53 54 55 55 55 54 53 50 47 45 46 48 50 51 52 52 52 53 53 54 55 56 55 55 54 53 52 51 51 51 51 51 51 51 50 50 50 49 49 51 55 60 65 67 67 65 62 58 55 53 51 50 50 50 50 52 54 55 56 56 55 55
54 55 57 58 58 58 58 57 55 53 50 47 47 49 51 52 52 52 52 52 53 56 55 53 51 50 49 49 49 51 51 51 52 52 53 52 52 52 53 56 60 64 66 68 68 68 66 62 59 57 55 54 53 53 53 54 56 57 58 58 58 58 57
48 52 55 58 59 60 60 60 59 57 54 50 48 48 50 53 54 53 53 54 56 57 56 53 49 47 48 49 50 52 53 53 52 53 54 56 57 59 61 64 66 67 68 69 69 68 66 62 60 58 57 57 57 57 57 58 59 60 61 61 61 60 59
45 49 54 57 59 61 62 61 61 60 58 56 54 54 53 53 54 54 56 58 60 61 62 61 57 53 51 51 52 53 55 57 59 60 61 63 64 66 67 68 68 70 71 71 70 68 65 62 60 60 59 59 59 59 60 60 61 62 63 63 63 63 62
47 50 54 56 57 58 59 59 60 60 60 61 62 63 62 60 58 58 59 61 62 63 64 65 64 61 58 58 59 61 62 64 66 68 69 69 70 71 71 71 72 73 73 72 70 68 65 62 62 62 63 63 63 62 62 63 63 64 64 63 63 63 62
56 56 57 58 59 59 60 61 62 64 65 65 65 66 66 66 65 64 65 65 65 66 66 67 68 68 67 67 67 67 67 67 69 71 72 73 74 74 75 75 75 75 74 73 70 68 66 66 66 66 66 65 65 65 65 65 65 64 62 60 58 56 55
65 64 63 63 63 64 65 66 67 69 70 70 70 69 68 68 68 68 68 68 68 69 69 70 71 72 72 72 71 70 70 71 72 74 74 75 76 77 77 77 76 76 74 72 70 69 69 69 69 69 68 67 66 66 65 65 64 63 61 59 57 55 53
69 71 71 71 70 69 69 71 73 74 75 75 75 75 75 74 74 74 73 73 73 73 72 72 73 74 75 75 75 75 75 77 77 77 77 78 78 78 78 77 76 75 73 71 71 71 70 68 67 67 68 67 66 65 63 62 62 61 61 61 61 60 58
74 76 77 78 77 77 76 76 77 78 79 80 80 80 81 81 81 81 80 80 80 80 80 79 77 76 76 77 77 78 79 80 79 79 79 79 78 78 78 77 76 75 73 72 72 71 69 66 64 64 64 63 63 62 61 61 62 63 63 64 65 65 64
79 81 81 81 82 83 83 82 81 81 82 83 84 84 84 85 85 85 85 86 87 87 86 83 80 78 78 78 79 79 80 80 80 79 79 79 78 78 77 77 76 75 75 74 73 70 67 63 60 59 59 58 59 60 61 64 65 66 67 67 67 67 66
82 84 85 85 86 87 88 87 86 86 86 87 87 88 88 89 89 89 89 90 90 88 86 83 81 80 79 79 79 79 79 79 79 80 79 79 78 78 77 76 76 75 75 74 72 70 66 60 54 55 58 60 61 63 65 68 68 67 67 68 69 70 69
85 87 87 88 88 89 90 91 91 91 90 91 91 92 92 92 92 93 94 94 92 89 86 84 82 81 80 80 79 79 79 78 79 79 79 78 77 77 76 75 75 75 74 74 72 70 66 59 54 57 64 67 67 68 70 71 70 69 70 71 72 73 71
85 88 90 90 91 91 91 93 94 94 95 95 96 96 96 97 98 98 97 95 91 88 86 84 83 82 81 80 80 79 78 78 78 79 78 78 76 76 75 74 74 75 75 75 74 72 69 64 62 64 69 72 73 73 74 75 76 75 75 74 74 74 73
85 87 90 92 93 94 94 95 96 97 97 97 98 98 98 98 98 97 94 92 89 86 84 83 82 81 80 80 79 78 77 77 77 77 77 77 77 76 77 76 76 76 76 76 76 75 73 70 69 70 74 76 77 77 77 79 80 79 77 77 77 77 76
87 88 89 90 92 94 95 97 97 98 98 98 97 97 96 94 93 91 89 88 86 84 83 81 81 80 80 79 79 78 77 77 77 77 76 76 77 77 78 78 78 78 78 77 77 77 76 75 74 75 78 80 80 80 80 81 82 81 80 80 80 81 81
86 87 87 88 89 89 91 92 93 94 95 95 95 94 93 92 90 89 87 86 84 83 82 81 80 80 80 80 80 80 80 80 80 80 80 79 79 80 81 81 82 82 81 81 80 80 79 79 79 80 81 82 82 83 83 83 83 82 82 82 83 84 85
Wind_Direction
275 277 278 279 279 280 280 280 279 280 280 281 282 283 284 284 285 287 289 290 291 292 293 293 293 294 294 295 297 297 298 298 299 300 300 300 301 299 295 293 297 300 298 296 297 296 296 296 297 297 299 301 301 301 300 300 300 301 303 303 302 300 299
275 277 279 280 281 282 281 280 279 279 280 280 281 282 283 284 286 287 288 289 290 292 293 294 294 294 295 295 296 296 295 295 296 296 295 295 296 294 291 290 293 296 295 294 294 294 294 294 294 296 298 299 298 298 298 298 298 299 301 301 300 300 300
274 276 278 280 281 282 283 282 282 281 280 280 281 281 282 283 285 286 287 289 291 292 291 292 292 293 294 294 294 294 293 293 292 292 291 290 290 289 287 286 288 291 292 291 291 291 292 292 293 296 297 297 296 296 296 295 295 296 297 298 298 298 299
275 277 279 280 281 282 283 284 283 281 279 278 278 279 281 283 285 287 288 289 289 288 288 290 291 293 295 296 295 294 293 291 290 288 286 286 286 285 285 284 284 287 289 289 289 289 290 290 292 294 295 294 294 294 294 294 294 295 296 297 298 299 299
274 276 277 277 278 278 279 278 277 276 276 276 278 279 281 283 286 287 287 286 286 287 289 291 294 296 297 298 297 296 294 291 287 284 282 283 283 283 284 284 283 285 287 287 287 288 287 287 290 293 293 292 293 293 293 294 295 295 296 297 299 300 300
272 273 274 273 273 273 274 273 272 272 273 275 278 279 280 281 284 286 287 288 289 291 292 294 296 297 298 298 298 297 295 291 286 281 279 280 281 282 283 283 283 284 286 287 286 285 284 284 288 291 292 291 292 293 293 294 295 295 296 297 298 300 301
270 272 272 273 273 273 272 272 272 272 273 274 276 278 280 281 283 286 289 290 292 293 294 295 297 298 298 298 297 297 294 290 284 279 278 279 280 281 282 282 283 284 286 286 285 283 282 282 286 289 290 290 291 292 292 293 294 294 295 296 297 299 300
269 271 272 273 273 273 273 273 273 274 275 276 277 279 281 282 285 288 290 291 292 294 295 296 297 297 298 297 296 294 292 287 281 278 277 278 279 280 280 281 282 283 284 286 285 283 281 282 284 287 288 289 290 290 290 291 292 292 293 294 296 296 297
269 270 271 272 272 273 273 274 275 276 278 279 280 281 282 284 286 288 290 292 294 295 296 297 297 298 298 297 294 291 287 282 278 276 275 276 277 277 278 280 281 282 283 286 286 283 282 282 283 285 285 287 287 287 288 289 290 291 291 292 293 293 294
268 269 271 272 272 272 273 274 276 278 279 281 282 283 284 285 286 288 290 292 294 295 296 297 297 296 296 296 292 287 282 279 277 275 274 274 275 277 279 280 281 282 284 286 286 284 283 282 282 282 283 284 285 286 287 288 289 290 290 291 290 290 291
268 269 271 272 272 273 274 275 276 278 279 280 282 283 284 285 287 288 290 291 292 293 294 294 294 294 294 293 289 284 279 277 276 275 274 274 275 277 279 280 281 282 284 285 285 284 283 282 281 282 282 283 285 285 286 287 288 289 290 290 290 290 291
269 270 271 272 274 275 275 275 275 276 276 278 280 282 284 285 287 288 289 289 290 291 291 291 290 290 289 287 285 282 278 276 275 274 274 274 275 276 277 279 280 281 282 283 284 284 283 283 283 283 284 285 286 286 286 287 287 287 287 288 289 291 292
269 270 271 273 275 275 275 274 272 272 273 276 278 280 282 283 285 286 286 287 288 288 288 287 287 286 285 284 283 281 279 278 277 276 276 276 276 277 278 279 280 281 283 284 285 286 286 285 285 286 287 287 288 288 288 288 287 286 286 287 288 290 290
267 269 271 273 274 274 273 271 269 269 270 272 274 276 277 280 281 283 284 285 286 286 286 285 285 284 284 284 284 283 283 282 282 281 280 279 279 279 280 281 282 284 285 287 288 289 289 289 289 289 290 290 289 288 288 287 286 287 287 287 288 289 288
264 265 267 268 269 270 272 270 268 267 268 269 271 275 278 280 282 284 285 285 286 287 287 286 286 286 286 287 287 287 288 288 287 286 284 283 282 282 283 284 285 287 288 289 291 291 291 291 291 292 292 292 291 289 288 287 286 286 287 287 288 287 286
256 258 261 261 261 262 266 270 269 269 270 272 275 278 280 283 285 286 287 289 291 291 291 290 290 290 291 292 292 293 294 294 292 290 288 287 285 284 284 284 285 287 289 290 292 293 293 294 294 295 295 294 292 291 289 288 287 286 286 287 287 286 285
251 254 259 262 262 265 268 272 273 274 277 279 279 280 282 284 286 287 290 293 294 294 293 293 293 293 294 295 295 296 296 295 294 291 289 288 286 285 283 283 285 286 288 291 294 296 298 298 298 298 297 295 293 292 290 289 287 287 286 286 286 285 285
253 254 258 265 270 273 275 275 276 279 282 282 281 282 285 287 288 290 292 294 294 294 294 294 294 294 295 296 296 295 295 293 292 290 288 287 286 284 283 283 284 286 288 291 295 300 302 302 300 299 297 296 295 293 292 290 289 287 287 286 286 287 287
256 251 254 263 267 269 271 271 272 275 278 278 279 283 286 288 289 290 292 293 293 293 293 293 294 294 295 294 294 293 292 291 289 288 288 288 286 285 285 284 284 286 288 291 297 303 305 304 302 299 298 298 297 296 295 293 291 290 289 290 290 290 290
259 254 255 260 262 264 267 269 269 268 269 272 278 282 285 287 288 289 290 291 291 291 291 292 293 293 293 292 291 290 289 289 288 288 289 288 287 285 284 284 284 286 287 291 298 303 305 305 303 301 300 300 299 298 297 295 293 292 292 292 292 292 291
265 263 262 263 265 267 269 270 271 271 271 275 280 283 285 286 286 288 289 290 291 290 291 291 291 292 292 290 288 287 287 286 286 287 288 288 287 285 284 283 284 286 289 294 299 303 305 305 304 303 302 300 299 297 295 293 292 291 291 291 292 292 292
266 267 268 268 268 268 268 269 272 273 275 280 283 283 284 284 285 287 289 289 289 290 291 292 292 291 290 288 284 283 283 283 284 286 286 286 286 284 283 283 286 289 293 297 301 304 305 305 304 303 301 300 298 296 294 292 290 291 291 291 292 292 292
267 268 268 267 268 268 266 267 269 271 274 279 281 281 281 282 284 285 284 285 287 289 291 294 293 288 284 283 280 278 280 281 284 286 286 286 285 283 284 286 288 292 295 299 302 304 304 303 303 302 300 299 297 296 294 292 291 291 292 292 293 293 292
263 265 266 266 266 267 266 265 267 269 272 275 278 280 281 281 282 282 281 283 287 288 289 292 291 284 280 280 278 276 278 279 281 283 284 284 284 284 286 288 290 293 296 300 302 303 303 302 300 299 298 297 296 295 293 292 292 291 291 292 292 292 291
253 259 263 264 265 266 266 266 266 267 270 274 279 282 283 282 282 281 280 282 285 285 286 288 288 283 280 279 277 276 278 279 280 282 283 284 285 286 288 289 291 294 297 299 301 301 300 299 297 297 296 295 293 292 291 289 289 289 289 289 289 289 289
249 256 260 261 262 263 264 266 269 271 273 276 280 283 284 284 283 282 282 283 283 283 283 285 285 283 280 278 278 279 280 281 282 284 285 286 287 288 289 291 293 295 297 298 299 299 298 296 296 295 294 293 292 291 290 289 288 287 287 286 286 286 286
249 254 258 259 260 261 261 264 269 274 277 279 282 284 284 285 285 284 284 285 284 283 282 282 283 283 282 281 282 282 282 283 284 285 287 288 288 289 290 292 294 296 297 298 299 298 297 296 297 296 295 294 293 292 291 290 290 289 288 287 287 287 286
249 252 255 257 258 260 260 261 264 269 273 277 280 282 283 284 285 285 285 285 284 284 283 282 281 282 282 282 282 282 282 283 284 286 287 287 288 289 291 293 295 296 297 298 298 298 298 298 298 298 297 296 295 293 292 291 291 291 290 290 289 289 287
247 251 254 256 257 258 260 261 262 264 268 271 274 277 280 282 284 285 285 285 285 285 284 283 281 280 280 280 280 280 281 281 282 283 284 285 287 289 291 292 293 294 295 296 295 295 296 297 297 296 296 296 295 294 293 292 291 291 290 290 290 290 289
245 250 255 256 257 258 260 262 262 262 265 268 271 273 276 279 281 283 284 285 286 286 285 284 282 281 279 278 278 278 279 280 281 282 283 285 287 289 291 292 292 293 293 292 292 293 294 294 293 293 294 294 293 292 291 289 288 287 287 288 288 289 290
245 249 254 256 257 258 260 261 262 263 264 266 269 271 274 277 279 281 282 283 284 284 284 283 282 280 279 278 278 278 279 280 282 283 284 285 286 288 289 290 290 291 290 290 290 291 291 292 293 293 291 290 288 287 285 283 283 284 285 286 286 287 288
247 250 253 255 257 258 259 260 262 263 264 265 267 270 273 275 277 279 280 281 282 282 281 281 280 279 279 278 278 279 280 281 282 283 283 284 285 286 286 287 287 287 287 288 288 288 289 290 290 285 282 280 280 280 280 280 281 283 284 285 286 286 286
250 251 253 256 258 260 262 263 263 264 264 265 267 269 272 274 276 277 278 279 279 279 279 279 279 279 279 279 279 279 279 280 281 281 282 283 283 284 285 285 285 285 285 286 287 287 288 287 282 277 276 277 277 277 278 280 281 282 282 284 285 285 285
254 254 254 256 258 261 264 266 267 267 267 267 267 269 271 273 275 276 277 277 278 278 278 278 278 278 278 278 278 278 278 278 278 279 280 280 281 282 282 283 283 284 285 286 286 286 287 285 282 279 278 279 279 279 280 281 282 282 283 284 284 284 283
261 259 258 258 259 260 262 265 267 269 269 270 270 271 272 273 274 275 276 276 277 277 278 278 278 278 277 277 277 277 277 278 278 278 279 280 280 281 281 281 282 283 284 285 286 286 286 285 284 282 280 280 280 281 281 282 282 283 283 283 283 282 282
264 264 263 262 262 262 262 263 265 267 268 270 271 272 273 274 274 275 276 276 277 276 277 277 277 277 278 278 278 278 279 279 279 279 280 280 281 281 281 281 281 282 282 283 283 283 283 283 282 281 280 280 281 281 281 281 281 282 282 282 282 282 282
264 265 266 266 266 265 265 266 266 267 268 269 270 271 272 274 275 276 276 277 277 277 277 277 277 277 277 278 279 279 279 279 279 279 279 279 279 279 280 280 281 281 281 281 281 281 281 281 280 279 279 280 280 280 280 279 280 280 280 281 281 280 280
Height
10661 10661 10662 10662 10663 10663 10664 10665 10666 10667 10668 10668 10669 10669 10669 10670 10670 10670 10670 10670 10670 10670 10671 10671 10672 10672 10671 10671 10670 10669 10667 10666 10665 10663 10662 10661 10660 10659 10657 10657 10657 10657 10655 10654 10653 10652 10651 10651 10651 10651 10652 10652 10651 10650 10648 10646 10644 10643 10643 10642 10641 10640 10639
10658 10658 10658 10658 10659 10659 10660 10661 10663 10664 10664 10664 10664 10664 10665 10665 10665 10666 10666 10665 10665 10665 10665 10666 10666 10667 10666 10666 10665 10664 10663 10662 10661 10660 10659 10658 10657 10656 10654 10653 10654 10654 10652 10651 10651 10650 10649 10649 10648 10648 10648 10648 10647 10646 10645 10643 10641 10640 10640 10638 10637 10636 10635
10654 10654 10654 10655 10655 10656 10656 10657 10658 10659 10660 10660 10660 10660 10661 10661 10661 10662 10662 10662 10661 10661 10660 10660 10661 10661 10661 10661 10660 10660 10659 10658 10657 10656 10656 10655 10654 10653 10651 10650 10651 10650 10649 10648 10647 10646 10646 10646 10646 10645 10645 10644 10643 10642 10641 10639 10637 10637 10636 10634 10633 10632 10632
10649 10650 10650 10650 10650 10651 10652 10653 10654 10654 10655 10656 10656 10656 10657 10657 10657 10657 10657 10658 10657 10657 10656 10656 10655 10655 10655 10655 10655 10655 10655 10654 10653 10653 10652 10652 10651 10650 10649 10648 10648 10647 10645 10644 10643 10642 10642 10642 10642 10642 10641 10640 10639 10638 10637 10635 10633 10633 10632 10630 10629 10628 10628
10646 10646 10646 10646 10646 10647 10648 10649 10649 10650 10651 10652 10652 10652 10652 10653 10653 10653 10653 10653 10653 10653 10652 10651 10650 10650 10650 10650 10650 10650 10650 10650 10650 10649 10648 10648 10648 10647 10646 10645 10644 10644 10643 10641 10640 10639 10637 10637 10638 10638 10638 10636 10635 10634 10633 10631 10629 10628 10627 10625 10624 10623 10623
10642 10643 10643 10642 10642 10643 10644 10645 10646 10647 10647 10648 10648 10647 10647 10648 10649 10649 10649 10649 10648 10648 10648 10647 10646 10645 10644 10644 10645 10645 10645 10645 10645 10645 10644 10644 10644 10643 10642 10642 10641 10640 10640 10638 10637 10635 10634 10633 10634 10634 10633 10632 10630 10629 10628 10626 10625 10623 10622 10621 10620 10618 10617
10638 10638 10638 10638 10638 10639 10640 10640 10641 10643 10643 10643 10643 10643 10643 10643 10644 10643 10643 10643 10643 10643 10643 10642 10641 10640 10640 10639 10640 10640 10640 10640 10641 10641 10641 10640 10640 10639 10639 10638 10637 10637 10636 10635 10634 10632 10630 10629 10630 10630 10629 10627 10626 10624 10622 10621 10620 10618 10617 10616 10615 10614 10613
10633 10633 10633 10633 10634 10634 10635 10635 10636 10637 10637 10637 10637 10637 10637 10638 10638 10638 10637 10637 10637 10637 10637 10637 10636 10636 10635 10635 10635 10635 10635 10636 10636 10637 10637 10636 10636 10635 10635 10634 10634 10633 10632 10631 10630 10628 10626 10626 10626 10626 10624 10623 10621 10620 10617 10616 10615 10614 10612 10611 10610 10609 10608
10628 10628 10628 10629 10629 10629 10629 10630 10630 10631 10631 10630 10630 10630 10631 10631 10632 10632 10632 10632 10631 10631 10631 10631 10631 10631 10630 10630 10630 10631 10631 10632 10632 10633 10632 10632 10631 10631 10630 10630 10629 10629 10628 10627 10626 10624 10623 10622 10622 10622 10620 10618 10617 10615 10613 10611 10610 10609 10608 10607 10605 10604 10603
10623 10624 10624 10624 10624 10624 10624 10624 10624 10624 10624 10624 10624 10624 10625 10625 10626 10626 10626 10626 10626 10626 10626 10626 10626 10626 10626 10626 10626 10626 10627 10627 10628 10628 10628 10627 10626 10626 10625 10624 10624 10623 10623 10623 10621 10620 10619 10618 10618 10617 10615 10613 10612 10611 10609 10607 10605 10603 10602 10601 10600 10599 10598
10619 10619 10620 10619 10619 10618 10618 10618 10618 10618 10618 10618 10618 10618 10619 10619 10620 10620 10621 10621 10621 10621 10621 10621 10621 10621 10621 10622 10622 10622 10622 10623 10623 10623 10623 10623 10621 10620 10620 10619 10618 10618 10618 10617 10616 10615 10614 10614 10613 10612 10610 10608 10607 10606 10605 10603 10601 10599 10597 10595 10594 10593 10592
10614 10614 10614 10614 10613 10612 10612 10611 10611 10611 10611 10612 10612 10612 10613 10613 10614 10614 10615 10615 10616 10616 10616 10616 10616 10617 10617 10617 10618 10618 10618 10618 10619 10619 10619 10618 10617 10616 10615 10614 10613 10612 10612 10612 10611 10610 10609 10608 10607 10607 10605 10603 10601 10600 10600 10599 10597 10595 10593 10591 10589 10588 10586
10608 10608 10608 10608 10607 10606 10605 10605 10605 10604 10605 10605 10605 10606 10607 10608 10608 10609 10610 10610 10611 10611 10611 10611 10611 10612 10612 10613 10613 10614 10614 10614 10614 10614 10614 10613 10612 10610 10609 10608 10607 10606 10605 10605 10605 10604 10603 10602 10601 10600 10599 10598 10596 10595 10593 10592 10591 10590 10589 10587 10585 10583 10581
10602 10602 10602 10602 10601 10600 10599 10598 10598 10598 10598 10599 10599 10600 10602 10603 10604 10604 10605 10605 10606 10606 10606 10606 10606 10606 10607 10607 10608 10608 10609 10609 10609 10609 10609 10608 10607 10605 10603 10602 10601 10600 10599 10598 10598 10598 10597 10596 10594 10593 10593 10592 10590 10589 10587 10585 10584 10583 10581 10580 10579 10578 10576
10597 10597 10597 10596 10595 10594 10594 10593 10593 10593 10592 10592 10593 10594 10596 10598 10599 10599 10600 10600 10600 10600 10600 10600 10600 10600 10601 10601 10602 10603 10603 10603 10603 10603 10603 10602 10601 10600 10598 10596 10594 10594 10593 10592 10592 10591 10590 10589 10588 10586 10585 10584 10583 10582 10580 10579 10578 10576 10575 10573 10573 10572 10570
10592 10592 10591 10591 10590 10589 10589 10589 10589 10588 10588 10588 10588 10590 10591 10592 10594 10594 10595 10595 10595 10595 10595 10595 10595 10595 10595 10595 10595 10596 10596 10596 10596 10596 10596 10596 10596 10594 10593 10591 10589 10588 10587 10586 10586 10585 10584 10583 10581 10579 10577 10575 10574 10573 10572 10571 10570 10569 10568 10567 10566 10566 10565
10587 10586 10586 10586 10585 10585 10585 10585 10584 10584 10584 10583 10584 10584 10585 10587 10588 10589 10589 10589 10589 10589 10589 10589 10589 10589 10589 10589 10589 10589 10590 10589 10589 10589 10589 10589 10589 10588 10587 10586 10585 10583 10582 10581 10580 10580 10579 10577 10575 10573 10570 10568 10566 10565 10564 10563 10563 10562 10562 10561 10560 10560 10559
10582 10582 10582 10581 10581 10580 10580 10580 10580 10579 10579 10577 10577 10578 10579 10581 10582 10582 10582 10582 10582 10583 10582 10582 10582 10583 10583 10583 10583 10584 10584 10583 10583 10583 10582 10582 10582 10581 10580 10579 10579 10578 10577 10577 10576 10575 10573 10571 10569 10567 10565 10563 10561 10559 10558 10556 10555 10555 10555 10554 10553 10552 10552
10577 10577 10577 10577 10576 10575 10576 10576 10575 10575 10573 10571 10571 10573 10574 10575 10576 10576 10576 10576 10575 10576 10576 10576 10576 10577 10577 10577 10577 10578 10577 10577 10576 10576 10575 10575 10574 10573 10573 10572 10572 10571 10571 10570 10569 10568 10567 10565 10564 10561 10560 10557 10555 10554 10553 10551 10550 10548 10548 10547 10546 10544 10543
10570 10571 10571 10572 10571 10571 10571 10570 10570 10569 10567 10566 10566 10567 10568 10569 10569 10569 10569 10569 10569 10569 10569 10570 10570 10570 10571 10571 10570 10571 10570 10569 10569 10568 10568 10567 10566 10566 10565 10565 10565 10564 10564 10564 10563 10561 10559 10558 10557 10555 10553 10551 10550 10548 10547 10546 10545 10543 10542 10541 10540 10539 10537
10562 10563 10564 10565 10565 10565 10565 10564 10563 10562 10562 10561 10561 10561 10561 10562 10563 10563 10562 10561 10562 10562 10562 10563 10563 10563 10563 10563 10563 10563 10562 10562 10561 10561 10560 10560 10560 10559 10559 10558 10558 10558 10558 10557 10556 10554 10552 10550 10549 10548 10546 10545 10544 10542 10541 10540 10539 10538 10537 10536 10534 10533 10531
10556 10557 10557 10558 10559 10559 10558 10558 10557 10556 10556 10556 10555 10555 10555 10555 10555 10555 10555 10554 10554 10554 10554 10555 10555 10555 10554 10554 10555 10555 10554 10554 10554 10553 10553 10553 10553 10553 10552 10552 10551 10551 10550 10549 10548 10546 10544 10543 10541 10540 10539 10538 10537 10536 10535 10534 10533 10531 10530 10529 10527 10526 10524
10550 10550 10550 10550 10551 10551 10551 10551 10551 10551 10551 10550 10550 10549 10549 10549 10549 10549 10548 10547 10546 10546 10546 10546 10546 10546 10546 10546 10546 10546 10546 10546 10546 10545 10545 10546 10546 10546 10546 10545 10545 10543 10542 10541 10539 10538 10536 10534 10533 10532 10531 10530 10530 10529 10528 10527 10525 10524 10522 10521 10519 10518 10516
10545 10544 10543 10543 10543 10543 10544 10544 10544 10544 10545 10545 10544 10544 10544 10544 10543 10543 10542 10541 10540 10539 10539 10539 10539 10539 10539 10539 10538 10538 10538 10538 10538 10537 10538 10538 10538 10538 10538 10537 10536 10535 10534 10533 10531 10529 10528 10526 10524 10523 10522 10521 10521 10520 10519 10518 10517 10515 10514 10513 10511 10510 10509
10540 10539 10538 10538 10538 10537 10536 10536 10537 10538 10539 10539 10539 10539 10539 10538 10538 10537 10536 10535 10535 10534 10532 10532 10532 10532 10532 10532 10531 10530 10530 10529 10528 10528 10528 10528 10528 10528 10527 10527 10526 10526 10525 10524 10523 10522 10520 10518 10517 10515 10514 10514 10513 10512 10511 10510 10509 10508 10506 10505 10504 10502 10501
10536 10535 10533 10533 10534 10532 10530 10529 10530 10532 10533 10533 10533 10532 10532 10533 10532 10531 10529 10529 10529 10529 10527 10526 10525 10525 10525 10524 10523 10523 10522 10520 10519 10518 10517 10517 10517 10516 10516 10516 10516 10515 10515 10515 10514 10513 10512 10511 10509 10508 10507 10506 10505 10504 10503 10502 10501 10500 10499 10498 10496 10494 10494
10532 10531 10529 10528 10528 10528 10526 10525 10524 10524 10525 10526 10527 10526 10525 10525 10525 10524 10523 10523 10522 10522 10522 10520 10519 10518 10517 10516 10515 10514 10513 10511 10510 10508 10507 10506 10505 10505 10505 10504 10504 10504 10504 10504 10503 10502 10501 10500 10500 10499 10497 10496 10495 10494 10492 10491 10489 10488 10488 10488 10487 10486 10486
10528 10527 10524 10523 10523 10523 10522 10521 10519 10518 10517 10519 10520 10519 10518 10518 10517 10517 10517 10517 10516 10515 10515 10514 10512 10511 10510 10509 10508 10507 10505 10503 10502 10500 10498 10497 10495 10495 10495 10494 10494 10493 10493 10493 10492 10490 10489 10489 10488 10486 10484 10484 10483 10482 10480 10479 10477 10477 10477 10477 10478 10478 10478
10524 10521 10517 10517 10518 10518 10517 10515 10514 10513 10512 10512 10513 10513 10512 10511 10511 10510 10510 10510 10509 10508 10508 10507 10506 10505 10503 10502 10501 10499 10497 10495 10494 10493 10490 10488 10487 10486 10486 10486 10485 10485 10485 10484 10482 10481 10481 10481 10479 10476 10473 10472 10471 10469 10469 10467 10466 10466 10466 10466 10467 10468 10468
10517 10514 10510 10510 10511 10510 10509 10509 10508 10508 10507 10506 10506 10506 10506 10505 10504 10504 10503 10503 10502 10501 10501 10500 10499 10497 10496 10494 10492 10490 10488 10486 10485 10484 10483 10481 10480 10479 10478 10477 10476 10477 10477 10476 10475 10475 10476 10476 10474 10469 10466 10464 10461 10461 10461 10458 10457 10456 10456 10457 10457 10458 10459
10508 10506 10503 10502 10501 10500 10500 10501 10501 10501 10501 10500 10499 10499 10498 10498 10497 10496 10496 10495 10494 10493 10492 10491 10490 10488 10486 10484 10483 10480 10478 10477 10476 10475 10474 10472 10472 10472 10470 10469 10468 10468 10467 10466 10468 10470 10471 10472 10470 10464 10459 10457 10455 10454 10454 10451 10449 10449 10448 10448 10449 10449 10451
10500 10498 10496 10494 10492 10491 10492 10492 10493 10493 10492 10492 10491 10490 10490 10490 10489 10488 10488 10487 10486 10484 10483 10481 10481 10479 10477 10475 10474 10472 10470 10469 10467 10466 10465 10464 10464 10464 10463 10462 10461 10459 10458 10458 10460 10462 10465 10469 10468 10460 10452 10450 10449 10448 10446 10443 10442 10443 10442 10441 10440 10440 10442
10491 10490 10488 10487 10486 10486 10484 10483 10483 10483 10483 10483 10483 10482 10481 10481 10480 10480 10480 10479 10477 10476 10473 10472 10471 10470 10468 10466 10465 10464 10463 10461 10459 10457 10456 10456 10456 10455 10453 10452 10451 10448 10448 10450 10451 10453 10457 10462 10463 10456 10446 10443 10443 10441 10437 10435 10435 10436 10435 10435 10433 10432 10431
10480 10480 10480 10480 10480 10480 10477 10474 10472 10472 10472 10473 10473 10473 10473 10472 10471 10471 10470 10469 10468 10466 10464 10462 10460 10459 10457 10456 10455 10454 10453 10452 10451 10449 10449 10448 10448 10447 10445 10444 10441 10439 10438 10439 10439 10442 10445 10449 10451 10447 10438 10433 10433 10432 10430 10428 10427 10427 10428 10427 10425 10423 10422
10468 10469 10470 10470 10470 10470 10469 10467 10464 10462 10462 10462 10462 10463 10463 10462 10461 10460 10459 10458 10457 10455 10453 10451 10449 10447 10445 10444 10443 10443 10442 10442 10440 10440 10440 10439 10438 10437 10436 10435 10434 10431 10430 10430 10429 10430 10432 10435 10438 10435 10428 10423 10423 10423 10422 10419 10417 10418 10419 10417 10415 10414 10413
10458 10457 10457 10458 10459 10459 10459 10458 10457 10456 10454 10453 10452 10452 10451 10451 10450 10448 10447 10446 10445 10443 10442 10440 10438 10436 10433 10431 10430 10430 10430 10431 10429 10429 10430 10430 10428 10426 10425 10425 10424 10422 10422 10423 10422 10422 10422 10423 10424 10422 10416 10413 10413 10414 10413 10409 10407 10408 10408 10406 10405 10403 10401
10448 10447 10446 10446 10447 10448 10448 10447 10447 10446 10444 10443 10442 10441 10440 10439 10438 10437 10435 10433 10432 10431 10430 10429 10427 10426 10424 10422 10420 10419 10418 10419 10418 10418 10419 10420 10419 10417 10416 10415 10414 10412 10412 10413 10413 10413 10413 10413 10412 10410 10406 10404 10404 10403 10401 10398 10397 10398 10397 10396 10394 10391 10390